Location: Jastrz?bniki
(50.3667°N, 20.3833°E)
Time: 10:11:14
(UTC+00:00)

Cosmos 2219 Rocket - Pass Details

Date: 05 August 2024
Orbit: 826 x 847 km, 71.0° (Epoch: 06 September)

Event Time Altitude Azimuth Distance (km) Brightness Sun altitude
Exits shadow 01:30:33 19° 209° (SSW) 1,924 3.4 -13.5°
Maximum altitude 01:34:46 88° 294° (WNW) 853 2.2 -13.1°
Drops below altitude 10° 01:40:30 10° 29° (NNE) 2,481 6.0 -12.5°
Sets 01:42:58 0° 30° (NNE) 3,420 7.1 -12.2°
